{"data":{"norad_id":66766,"epoch":"2026-05-25T02:40:08.450688Z","epoch_age_seconds":61438,"freshness":"FRESH","line1":"1 66766U 25276DE  26145.11120892  .00005039  00000+0  23354-3 0  9991","line2":"2 66766  97.4165 219.2042 0001183 109.8191 250.3172 15.20523691 26931","mean_motion":15.20523691,"eccentricity":0.0001183,"inclination_deg":97.4165,"raan_deg":219.2042,"arg_perigee_deg":109.8191,"mean_anomaly_deg":250.3172,"bstar":0.00023354,"rev_number":2693,"period_min":94.704213326197,"perigee_km":503.44570584783,"apogee_km":505.07408095281,"semimajor_km":6882.3968934003,"source":"CELESTRAK","updated_at":"2026-05-25T13:38:06.475046Z"}}